[[{"header":{"parameterUnit":"m.s-1","parameterCategory":1,"la1":30.2992,"la2":30.254,"lo1":-89.0895,"lo2":-89.0443,"dy":0.0025,"dx":0.0025,"nx":19,"ny":19,"refTime":"2026-03-21T09:00:00:Z","depth":0,"parameterNumber":2,"parameterNumberName":"U-component_of_WINDS"},"data":[0,0,0,3.1997,3.2002,3.2216,3.2217,3.249,3.2492,0,0,0,0,0,0,0,0,0,0,0,3.1934,3.1936,3.1997,3.2002,3.2216,3.2217,3.249,3.2493,0,0,0,0,0,0,0,0,0,0,0,3.1933,3.1935,3.1937,3.2003,3.2216,3.2217,3.2489,3.2328,0,0,0,0,0,0,0,0,0,0,3.212,3.2061,3.1935,3.1938,3.2004,3.2216,3.2217,3.232,3.2338,3.2393,0,3.2442,0,3.2471,3.2511,3.2512,0,0,0,3.2003,3.2047,3.2104,3.1938,3.2006,3.2215,3.212,3.233,3.235,3.2416,3.2446,3.2456,3.2476,3.2512,3.2514,3.2828,3.2829,0,0,3.1991,3.1973,3.209,3.2117,3.2084,3.2113,3.2126,3.2342,3.2373,3.2447,3.2462,3.248,3.2514,3.2516,3.2827,3.2828,0,0,0,3.1957,3.1964,3.2017,3.2106,3.2145,3.2119,3.2135,3.2364,3.2382,3.2465,3.2484,3.2516,3.2519,3.2825,3.2827,3.2879,0,0,0,3.1949,3.1944,3.2011,3.2002,3.2141,3.2257,3.2151,3.2367,3.2392,3.2482,3.2516,3.2522,3.2824,3.2826,3.2874,3.2906,0,0,0,3.192,3.1941,3.1972,3.2001,3.2092,3.2254,3.2285,3.2373,3.2403,3.2512,3.2523,3.2822,3.2826,3.287,3.2899,3.2981,0,0,0,3.1883,3.2017,3.1972,3.2129,3.209,3.2285,3.2284,3.243,3.2529,3.2517,3.2824,3.2827,3.2869,3.2895,3.2976,3.3044,3.3072,0,0,3.2042,3.2036,3.2129,3.2095,3.2292,3.2254,3.2459,3.2568,3.2596,3.2749,3.2757,3.2876,3.2899,3.298,3.3237,3.3258,0,0,0,3.2173,3.224,3.2296,3.2389,3.2475,3.255,3.263,3.267,3.28,3.2671,3.293,3.2944,3.2992,3.3025,3.3044,3.3085,3.2842,3.2842,3.2842,3.2371,3.2398,3.2553,3.2605,3.2696,3.2775,3.285,3.2917,3.292,3.298,3.3025,3.3177,3.3216,3.323,3.3272,3.3066,3.3066,3.3066,3.3066,3.2604,3.2701,3.2699,3.2848,3.2875,3.3001,3.3082,3.3079,3.3199,3.3147,3.319,3.3127,3.3252,3.3291,3.307,3.307,3.3069,3.3069,3.3068,3.2734,3.2785,3.2831,3.2966,3.3067,3.3115,3.323,3.3252,3.3273,3.3317,3.3364,3.3363,3.3362,3.3338,3.3339,3.3339,3.334,3.334,3.334,3.285,3.29,3.2994,3.3094,3.3155,3.3238,3.3317,3.3378,3.345,3.3456,3.3457,3.3451,3.3261,3.321,3.3349,3.3347,3.3346,3.3345,3.3345,3.3072,3.3025,3.3169,3.323,3.3347,3.3444,3.347,3.3591,3.3644,3.3699,3.3684,3.3541,3.3536,3.3522,3.348,3.368,3.368,3.368,3.368,3.3179,3.3179,3.333,3.3424,3.352,3.3557,3.3717,3.378,3.3837,3.3871,3.3846,3.3793,3.3778,3.3782,3.3762,3.3723,3.3981,3.3981,3.3981,3.3315,3.3325,3.3457,3.3511,3.3604,3.3683,3.3833,3.3941,3.3997,3.3994,3.3897,3.3885,3.38,3.3772,3.3765,3.3733,3.3663,0,0]},{"header":{"parameterUnit":"m.s-1","parameterCategory":1,"la1":30.2992,"la2":30.254,"lo1":-89.0895,"lo2":-89.0443,"dy":0.0025,"dx":0.0025,"nx":19,"ny":19,"refTime":"2026-03-21T09:00:00:Z","depth":0,"parameterNumber":3,"parameterNumberName":"V-component_of_WINDS"},"data":[0,0,0,1.5194,1.5195,1.5237,1.5238,1.5298,1.5298,0,0,0,0,0,0,0,0,0,0,0,1.5186,1.5187,1.5194,1.5195,1.5237,1.5238,1.5298,1.5298,0,0,0,0,0,0,0,0,0,0,0,1.5186,1.5187,1.5187,1.5196,1.5237,1.5238,1.5297,1.5263,0,0,0,0,0,0,0,0,0,0,1.5221,1.5219,1.5187,1.5187,1.5196,1.5237,1.5238,1.5262,1.5265,1.5281,0,1.5297,0,1.5299,1.5303,1.5303,0,0,0,1.5192,1.5215,1.5223,1.5188,1.5196,1.5237,1.5217,1.5264,1.5268,1.5287,1.5298,1.53,1.53,1.5303,1.5304,1.5407,1.5408,0,0,1.519,1.5196,1.522,1.5226,1.522,1.5216,1.5219,1.5266,1.5279,1.5298,1.5302,1.5301,1.5304,1.5304,1.5407,1.5407,0,0,0,1.5185,1.5195,1.5201,1.5223,1.523,1.5217,1.5221,1.5277,1.5278,1.5302,1.5302,1.5304,1.5305,1.5406,1.5407,1.5444,0,0,0,1.5184,1.5192,1.52,1.5204,1.523,1.5255,1.5231,1.5275,1.528,1.5301,1.5304,1.5305,1.5405,1.5406,1.5442,1.5461,0,0,0,1.5182,1.5192,1.52,1.5205,1.5223,1.5254,1.5258,1.5276,1.528,1.5303,1.5306,1.5405,1.5406,1.544,1.5458,1.549,0,0,0,1.5182,1.5234,1.52,1.5257,1.5223,1.5277,1.5257,1.5297,1.5321,1.5304,1.5405,1.5407,1.5439,1.5455,1.5487,1.5518,1.5531,0,0,1.5251,1.5242,1.5275,1.5246,1.5308,1.527,1.5336,1.5353,1.5349,1.5388,1.539,1.5443,1.5457,1.5489,1.5605,1.5616,0,0,0,1.5299,1.5322,1.5337,1.536,1.5373,1.5386,1.5391,1.5396,1.5429,1.537,1.5463,1.5472,1.549,1.5504,1.5513,1.5528,1.5414,1.5413,1.5413,1.5406,1.5397,1.545,1.5446,1.5469,1.5473,1.549,1.5498,1.5484,1.5505,1.5517,1.5588,1.5605,1.5612,1.5628,1.5533,1.5533,1.5533,1.5533,1.5505,1.5536,1.5514,1.5558,1.5548,1.5585,1.559,1.5578,1.561,1.5579,1.5595,1.5562,1.5624,1.5637,1.5536,1.5535,1.5535,1.5535,1.5534,1.5574,1.5587,1.5593,1.5624,1.5648,1.5642,1.5673,1.5664,1.5655,1.567,1.5681,1.568,1.5678,1.5676,1.5676,1.5677,1.5677,1.5677,1.5677,1.5643,1.5648,1.5675,1.5692,1.5704,1.572,1.5722,1.5734,1.5745,1.5735,1.5735,1.5718,1.5632,1.561,1.5681,1.568,1.568,1.5679,1.5679,1.5747,1.5721,1.5764,1.5776,1.5794,1.5818,1.5804,1.5829,1.5837,1.5853,1.5832,1.577,1.576,1.5753,1.5735,1.5834,1.5834,1.5834,1.5834,1.5804,1.5798,1.5838,1.5859,1.5877,1.5869,1.5916,1.5917,1.5916,1.592,1.5904,1.5879,1.5872,1.5867,1.5857,1.584,1.5963,1.5964,1.5964,1.5867,1.5862,1.5904,1.5901,1.5914,1.5924,1.5968,1.5991,1.5984,1.5969,1.5923,1.5917,1.5877,1.5865,1.5849,1.5834,1.5803,0,0]}]]